Satellite-Ground Cal/Val Site Overpasses Predictions

Prediction of Satellite NPP Overpassing Cal/Val Site: Antarctic Dome C

Ground Cal/Val Site Location: Latitude: -75.10, Longitude: 123.35; Satellite-Ground Site NADIR distance within 100 km.

Table of predicted overpasses for the next 14.0 days since TLE Epoch: 6/1/2024
Interval Starting Time Ending Time Minimum Distance Time Minimum Distance (km)
1 06/01/2024 07:25:24 06/01/2024 07:25:51 06/01/2024 07:25:37 34.92
2 06/03/2024 15:07:47 06/03/2024 15:07:54 06/03/2024 15:07:50 96.23
3 06/04/2024 14:48:44 06/04/2024 14:49:13 06/04/2024 14:48:58 15.22
4 06/06/2024 07:31:30 06/06/2024 07:31:59 06/06/2024 07:31:45 2.70
5 06/09/2024 14:54:52 06/09/2024 14:55:20 06/09/2024 14:55:06 20.46
6 06/10/2024 14:36:08 06/10/2024 14:36:22 06/10/2024 14:36:15 86.68
7 06/11/2024 07:37:39 06/11/2024 07:38:06 06/11/2024 07:37:52 36.32
8 06/12/2024 07:18:51 06/12/2024 07:19:10 06/12/2024 07:19:00 73.95
